Lexington Weather

Lexington, Massachusetts, USA

45°F
9/19/2020 8:32am 
  • Lexington Conditions: Clear
  • Temperature: 45.0°F / 7.2°CWarmer 2.0°F than last hour.
  • Dew Point: 36.5°FIncreased 1.3°Fsince last hour.
  • Relative Humidity: 72%Decreased 2.0% since last hour.
  • Wind: Wind from WNW WNW 1 mph, 10-min avg: 1 mph, gust: 2 mph
  • Barometer: 30.26 inRising 0.03  inHg/hr Rising Slowly
  • Visibility: 10 miles
  • Rain Today: 0.00 in
  •   
Southeast Middlesex County - Special Weather Statement
 - SEE ALL NEARBY ALERTS -

Regional Weather Roundup
for Boston / Norton, MA

        
000
ASUS41 KBOX 140504
RWRBOX

REGIONAL WEATHER ROUNDUP
NATIONAL WEATHER SERVICE BOSTON/NORTON MA
100 AM EDT MON SEP 14 2020

NOTE:  "FAIR" INDICATES FEW OR NO CLOUDS BELOW 12,000 FEET WITH NO 
SIGNIFICANT WEATHER AND/OR OBSTRUCTIONS TO VISIBILITY.

MAZALL-140600-
EASTERN MASSACHUSETTS
  
CITY           SKY/WX    TMP DP  RH WIND       PRES   REMARKS
BOSTON         MOCLDY    67  62  84 SW16      29.98F                  
BEVERLY        CLOUDY    67  62  84 SW12      29.97S                  
LAWRENCE       CLOUDY    65  62  90 S7        29.99S                  
BEDFORD        CLOUDY    67  62  84 CALM      29.97S                  
BLUE HILL        N/A     64  62  93 SW13      29.99F                  
NORWOOD        CLOUDY    68  62  81 SW7       29.99F                  
MARSHFIELD     CLOUDY    68  66  94 SW8       29.99S                  
PLYMOUTH       CLOUDY    66  65  96 SW7       30.00F                  
TAUNTON        PTCLDY    67  64  90 S3        30.00F                  
NEW BEDFORD    CLEAR     65  64  97 CALM      30.00F                  
$$

MAZALL-140600-
CAPE COD AND THE ISLANDS
  
CITY           SKY/WX    TMP DP  RH WIND       PRES   REMARKS
FALMOUTH       NOT AVBL                                               
HYANNIS        CLOUDY    69  66  90 SW9       29.99F                  
CHATHAM        PTCLDY    68  65  90 SW6       30.02F                  
PROVINCETOWN   CLOUDY    66  64  93 SW10      30.00F                  
NANTUCKET      CLEAR     67  65  93 S7        30.02F                  
MARTHAS VNYRD  PTCLDY    66  65  96 SW6       30.02F                  
$$
 
MAZALL-140600-
CENTRAL AND WESTERN MASSACHUSETTS
  
CITY           SKY/WX    TMP DP  RH WIND       PRES   REMARKS
WORCESTER      CLOUDY    65  63  93 W10       30.01S                  
FITCHBURG      CLOUDY    67  62  84 VRB3      29.99S                  
ORANGE         PTCLDY    65  62  90 CALM      30.00S                  
SPRINGFIELD    MOCLDY    65  64  94 S3        29.98S FOG              
WESTFIELD      PTCLDY    67  64  90 S8        29.99F                  
NORTH ADAMS    CLOUDY    69  61  75 W13       30.00R                  
PITTSFIELD     CLOUDY    66  62  87 W7        30.02R                  
$$
 
RIZALL-140600-
RHODE ISLAND
  
CITY           SKY/WX    TMP DP  RH WIND       PRES   REMARKS
PROVIDENCE     MOCLDY    67  66  97 SW7       30.01F                  
NEWPORT        PTCLDY    69  66  90 S6        30.01F                  
BLOCK ISLAND   CLOUDY    68  66  93 SW10      30.02F                  
SMITHFIELD     CLOUDY    65  65 100 SW3       30.01F                  
WESTERLY       CLOUDY    69  65  86 SW8       30.02S                  
$$
 
CTZALL-140600-
CONNECTICUT
  
CITY           SKY/WX    TMP DP  RH WIND       PRES   REMARKS
BRADLEY INTL   MOCLDY    68  63  84 SW9       29.99F                  
HARTFORD       CLOUDY    71  64  78 S7        30.00F                  
BRIDGEPORT     CLOUDY    73  66  78 SW12      30.01F                  
DANBURY        MOCLDY    68  66  93 CALM      30.03S                  
GROTON         CLOUDY    70  67  90 SW7       30.01S                  
NEW HAVEN      CLOUDY    74  69  85 SW8       30.01F                  
CHESTER        CLOUDY    70  68  94 SW3       30.02S                  
MERIDEN        PTCLDY    69  65  86 SW5       30.01S                  
WILLIMANTIC    CLOUDY    67  64  90 S3        30.01F                  
OXFORD         MOCLDY    67  66  97 VRB3      30.04S                  
$$

MEZ002-015-021-024-NHZ003-005-008-011-012-014-VTZ005-008-140600-
NORTHERN NEW ENGLAND
  
CITY           SKY/WX    TMP DP  RH WIND       PRES   REMARKS
PORTLAND ME    MOCLDY    68  59  73 S8        29.92F                  
BANGOR ME      MOCLDY    62  59  90 S7        29.89F                  
CONCORD NH     PTCLDY    63  58  83 CALM      29.94F                  
MANCHESTER NH  MOCLDY    68  62  81 S8        29.93F                  
NASHUA NH      MOCLDY    66  65  96 SE3       29.97F                  
PORTSMOUTH NH  CLOUDY    65  60  85 SW6       29.93                   
JAFFREY NH     PTCLDY    64  60  87 CALM      29.99F                  
KEENE NH       PTCLDY    63  61  93 CALM      29.98S                  
BURLINGTON VT  MOCLDY    68  56  65 W10G23    29.94R                  
MT. WASHINGTON FOG       46  46 100 W70G76      N/A  VSB 1/16         
$$

NYZ052-076-140600-
EASTERN NEW YORK
  
CITY           SKY/WX    TMP DP  RH WIND       PRES   REMARKS
ALBANY         MOCLDY    63  61  93 W3        30.01S                  
NEW YORK CITY  CLOUDY    74  64  71 SW9       30.02S                  
$$
 
ANZALL-140600-
MARINE OBSERVATIONS
  
STATION/POSITION TIME  TEMP    WIND        PRES    VSBY  WAVE
                       AIR SEA DIR/SP/G                  HT/PER
                 (UTC) (F)     (DEG/KT/KT) (MB)    (MI)  (FT/S)
BOSTON BUOY      0450   66 64  210/ 12/ 14 1014.1S         3/11
BUZZARDS BAY     0400          210/ 11/ 12 1017.4F
NANTUCKET SOUND  0450      71  220/ 12/ 14   N/A           1/ 3
MASS BAY-STELLWA 0404   65     240/ 12/ 16 1013.1F  1 7/8  5/11
ISLE OF SHOALS   NOT AVBL
S OF BLOCK IS    0426      71                N/A           5/11
$$

......................KEY.........................
  SKY/WX - SKY CONDITION/PRESENT WEATHER
  TMP    - TEMPERATURE IN FAHRENHEIT
  DWPT   - DEWPOINT IN FAHRENHEIT
  RH     - RELATIVE HUMIDITY IN PERCENT
  WIND   - DIRECTION AND SPEED IN MPH
  PRES   - MEAN SEA LEVEL PRESSURE IN INCHES OF HG
  WCI    - WIND CHILL INDEX
  VSB    - VISIBILITY IN MILES
  HX     - HEAT INDEX
  TC     - TEMPERATURE IN CELSIUS
  VRB    - VARIABLE WIND DIRECTION
  N/A    - NOT AVAILABLE
  
      

Other recent Regional Weather Roundups

Sat Sep 19, 8:04am

Sat Sep 19, 7:04am

Sat Sep 19, 6:04am

Sat Sep 19, 5:04am

Sat Sep 19, 4:04am

Sat Sep 19, 3:04am

Sat Sep 19, 2:04am

Sat Sep 19, 1:04am

Sat Sep 19, 12:04am

Fri Sep 18, 11:05pm

Fri Sep 18, 10:04pm

Fri Sep 18, 9:04pm

Fri Sep 18, 8:04pm

Fri Sep 18, 7:04pm

Fri Sep 18, 6:04pm

Fri Sep 18, 5:05pm

Fri Sep 18, 4:04pm

Fri Sep 18, 3:05pm

Fri Sep 18, 2:04pm

Fri Sep 18, 1:04pm

Fri Sep 18, 12:04pm

Fri Sep 18, 11:05am

Fri Sep 18, 10:05am

Fri Sep 18, 9:04am

Fri Sep 18, 8:04am

Fri Sep 18, 7:04am

Fri Sep 18, 6:04am

Fri Sep 18, 5:04am

Fri Sep 18, 4:04am

Fri Sep 18, 3:04am

Fri Sep 18, 2:04am

Fri Sep 18, 1:04am

Fri Sep 18, 12:04am

Thu Sep 17, 11:05pm

Thu Sep 17, 10:04pm

Thu Sep 17, 9:04pm

Thu Sep 17, 8:05pm

Thu Sep 17, 7:04pm

Thu Sep 17, 6:04pm

Thu Sep 17, 5:04pm

Thu Sep 17, 4:04pm

Thu Sep 17, 3:05pm

Thu Sep 17, 2:04pm

Thu Sep 17, 1:04pm

Thu Sep 17, 12:04pm

Thu Sep 17, 11:04am

Thu Sep 17, 10:04am

Thu Sep 17, 9:04am

Thu Sep 17, 8:04am

Thu Sep 17, 7:04am

Thu Sep 17, 6:04am

Thu Sep 17, 5:04am

Thu Sep 17, 4:04am

Thu Sep 17, 3:04am

Thu Sep 17, 2:05am

Thu Sep 17, 1:05am

Thu Sep 17, 12:04am

Wed Sep 16, 11:04pm

Wed Sep 16, 10:04pm

Wed Sep 16, 9:04pm

Wed Sep 16, 8:05pm

Wed Sep 16, 7:04pm

Wed Sep 16, 6:04pm

Wed Sep 16, 5:04pm

Wed Sep 16, 4:04pm

Wed Sep 16, 3:04pm

Wed Sep 16, 2:04pm

Wed Sep 16, 1:04pm

Wed Sep 16, 12:04pm

Wed Sep 16, 11:04am

Wed Sep 16, 10:04am

Wed Sep 16, 9:04am

Wed Sep 16, 8:04am

Wed Sep 16, 7:04am

Wed Sep 16, 6:04am

Wed Sep 16, 5:04am

Wed Sep 16, 4:04am

Wed Sep 16, 3:04am

Wed Sep 16, 2:04am

Wed Sep 16, 1:04am

Wed Sep 16, 12:05am

Tue Sep 15, 11:04pm

Tue Sep 15, 10:04pm

Tue Sep 15, 9:04pm

Tue Sep 15, 8:04pm

Tue Sep 15, 7:04pm

Tue Sep 15, 6:04pm

Tue Sep 15, 5:04pm

Tue Sep 15, 4:05pm

Tue Sep 15, 3:04pm

Tue Sep 15, 2:04pm

Tue Sep 15, 1:04pm

Tue Sep 15, 12:04pm

Tue Sep 15, 11:04am

Tue Sep 15, 10:04am

Tue Sep 15, 9:04am

Tue Sep 15, 8:04am

Tue Sep 15, 7:04am

Tue Sep 15, 6:04am

Tue Sep 15, 5:04am

Tue Sep 15, 4:04am

Tue Sep 15, 3:04am

Tue Sep 15, 2:04am

Tue Sep 15, 1:04am

Tue Sep 15, 12:05am

Mon Sep 14, 11:04pm

Mon Sep 14, 10:04pm

Mon Sep 14, 9:04pm

Mon Sep 14, 8:04pm

Mon Sep 14, 7:04pm

Mon Sep 14, 6:04pm

Mon Sep 14, 5:04pm

Mon Sep 14, 4:05pm

Mon Sep 14, 3:04pm

Mon Sep 14, 2:05pm

Mon Sep 14, 1:04pm

Mon Sep 14, 12:04pm

Mon Sep 14, 11:04am

Mon Sep 14, 10:05am

Mon Sep 14, 9:04am

Mon Sep 14, 8:04am

Mon Sep 14, 7:04am

Mon Sep 14, 6:04am

Mon Sep 14, 5:04am

Mon Sep 14, 4:04am

Mon Sep 14, 3:04am

Mon Sep 14, 2:04am

Mon Sep 14, 12:04am

Sun Sep 13, 11:05pm

Sun Sep 13, 10:04pm

Sun Sep 13, 9:04pm

Sun Sep 13, 8:04pm

Sun Sep 13, 7:05pm

Sun Sep 13, 6:05pm

Sun Sep 13, 5:05pm

Sun Sep 13, 4:04pm

Sun Sep 13, 3:04pm

Sun Sep 13, 2:04pm

Sun Sep 13, 1:04pm

Sun Sep 13, 12:04pm

Sun Sep 13, 11:05am

Sun Sep 13, 10:04am

Sun Sep 13, 9:04am

Sun Sep 13, 8:04am

Sun Sep 13, 7:04am

Sun Sep 13, 6:04am

Sun Sep 13, 5:04am

Sun Sep 13, 4:04am

Sun Sep 13, 3:04am

Sun Sep 13, 2:04am

Sun Sep 13, 1:04am

Sun Sep 13, 12:04am

Sat Sep 12, 11:04pm

Sat Sep 12, 10:04pm

Sat Sep 12, 9:04pm

Sat Sep 12, 8:04pm

Sat Sep 12, 7:05pm

Sat Sep 12, 6:04pm

Sat Sep 12, 5:04pm

Sat Sep 12, 4:05pm

Sat Sep 12, 3:04pm

Sat Sep 12, 2:04pm

Sat Sep 12, 1:05pm

Sat Sep 12, 12:04pm

Sat Sep 12, 11:04am

Sat Sep 12, 10:04am

Sat Sep 12, 9:04am

Meta data:

ID: fcabeac9-4402-4006-b5b2-a2f3616d46c7
Link: https://api.weather.gov/products/fcabeac9-4402-4006-b5b2-a2f3616d46c7